Time,TemperatureF,DewpointF,PressureIn,WindDirection,WindDirectionDegrees,WindSpeedMPH,WindSpeedGustMPH,Humidity,HourlyPrecipIn,Conditions,Clouds,dailyrainin,SoftwareType,DateUTC
2013-09-14 00:01:00,60.7,50.9,29.95,NE,38,2.0,4.0,70,0.00,,---,0.00,VWS V14.01,2013-09-14 04:01:00,
2013-09-14 00:02:00,60.7,50.5,29.95,WNW,298,0.0,2.0,69,0.00,,---,0.00,VWS V14.01,2013-09-14 04:02:00,
2013-09-14 00:04:00,60.6,50.8,29.95,West,262,0.0,2.0,70,0.00,,---,0.00,VWS V14.01,2013-09-14 04:04:00,
2013-09-14 00:08:00,60.6,50.4,29.95,SE,139,0.0,2.0,69,0.00,,---,0.00,VWS V14.01,2013-09-14 04:08:00,
2013-09-14 00:13:00,60.5,50.7,29.95,West,278,0.0,2.0,70,0.00,,---,0.00,VWS V14.01,2013-09-14 04:13:00,
2013-09-14 00:18:00,60.4,50.6,29.95,East,94,0.0,3.0,70,0.00,,---,0.00,VWS V14.01,2013-09-14 04:18:00,
2013-09-14 00:23:00,60.4,50.6,29.95,NNE,23,0.0,4.0,70,0.00,,---,0.00,VWS V14.01,2013-09-14 04:23:00,
2013-09-14 00:28:00,60.3,50.5,29.95,NNE,12,0.0,4.0,70,0.00,,---,0.00,VWS V14.01,2013-09-14 04:28:00,
2013-09-14 00:33:00,60.1,50.3,29.95,SW,217,0.0,1.0,70,0.00,,---,0.00,VWS V14.01,2013-09-14 04:33:00,
2013-09-14 00:38:00,60.0,50.2,29.95,ENE,70,0.0,3.0,70,0.00,,---,0.00,VWS V14.01,2013-09-14 04:38:00,
2013-09-14 00:43:00,59.9,50.1,29.95,SW,228,0.0,3.0,70,0.00,,---,0.00,VWS V14.01,2013-09-14 04:43:00,
2013-09-14 00:49:00,59.8,49.6,29.96,SSW,197,0.0,5.0,69,0.00,,---,0.00,VWS V14.01,2013-09-14 04:49:00,
2013-09-14 00:54:00,59.7,49.9,29.96,WNW,287,0.0,5.0,70,0.00,,---,0.00,VWS V14.01,2013-09-14 04:54:00,
2013-09-14 00:59:00,59.6,49.4,29.96,West,277,1.0,5.0,69,0.00,,---,0.00,VWS V14.01,2013-09-14 04:59:00,
2013-09-14 01:04:00,59.5,49.3,29.96,NE,50,2.0,4.0,69,0.00,,---,0.00,VWS V14.01,2013-09-14 05:04:00,
2013-09-14 01:09:00,59.4,49.2,29.96,NE,36,0.0,4.0,69,0.00,,---,0.00,VWS V14.01,2013-09-14 05:09:00,
2013-09-14 01:14:00,59.3,49.5,29.97,WNW,297,0.0,4.0,70,0.00,,---,0.00,VWS V14.01,2013-09-14 05:14:00,
2013-09-14 01:19:00,59.2,49.0,29.97,NNW,331,2.0,4.0,69,0.00,,---,0.00,VWS V14.01,2013-09-14 05:19:00,
2013-09-14 01:24:00,59.1,49.3,29.96,North,6,1.0,5.0,70,0.00,,---,0.00,VWS V14.01,2013-09-14 05:24:00,
2013-09-14 01:29:00,59.1,49.7,29.96,NNW,341,2.0,5.0,71,0.00,,---,0.00,VWS V14.01,2013-09-14 05:29:00,
2013-09-14 01:34:00,58.9,49.5,29.96,North,6,0.0,3.0,71,0.00,,---,0.00,VWS V14.01,2013-09-14 05:34:00,
2013-09-14 01:39:00,58.7,49.3,29.97,East,93,2.0,4.0,71,0.00,,---,0.00,VWS V14.01,2013-09-14 05:39:00,
2013-09-14 01:45:00,58.6,49.2,29.96,SW,226,0.0,4.0,71,0.00,,---,0.00,VWS V14.01,2013-09-14 05:45:00,
2013-09-14 01:50:00,58.4,49.0,29.96,SW,235,0.0,4.0,71,0.00,,---,0.00,VWS V14.01,2013-09-14 05:50:00,
2013-09-14 01:55:00,58.3,48.6,29.97,NE,46,1.0,9.0,70,0.00,,---,0.00,VWS V14.01,2013-09-14 05:55:00,
2013-09-14 02:00:00,58.2,48.5,29.97,SW,236,0.0,9.0,70,0.00,,---,0.00,VWS V14.01,2013-09-14 06:00:00,
2013-09-14 02:05:00,58.0,48.3,29.97,NNW,336,0.0,7.0,70,0.00,,---,0.00,VWS V14.01,2013-09-14 06:05:00,
2013-09-14 02:10:00,57.8,48.1,29.97,ESE,106,0.0,7.0,70,0.00,,---,0.00,VWS V14.01,2013-09-14 06:10:00,
2013-09-14 02:15:00,57.7,47.6,29.97,SSW,204,2.0,7.0,69,0.00,,---,0.00,VWS V14.01,2013-09-14 06:15:00,
2013-09-14 02:20:00,57.5,47.8,29.97,SW,233,3.0,7.0,70,0.00,,---,0.00,VWS V14.01,2013-09-14 06:20:00,
2013-09-14 02:25:00,57.4,47.3,29.97,SW,222,1.0,7.0,69,0.00,,---,0.00,VWS V14.01,2013-09-14 06:25:00,
2013-09-14 02:30:00,57.3,47.2,29.97,NE,56,0.0,7.0,69,0.00,,---,0.00,VWS V14.01,2013-09-14 06:30:00,
2013-09-14 02:35:00,57.1,47.0,29.97,ENE,62,0.0,3.0,69,0.00,,---,0.00,VWS V14.01,2013-09-14 06:35:00,
2013-09-14 02:41:00,56.9,46.8,29.98,NE,56,0.0,3.0,69,0.00,,---,0.00,VWS V14.01,2013-09-14 06:41:00,
2013-09-14 02:46:00,56.7,46.7,29.97,NNW,331,1.0,3.0,69,0.00,,---,0.00,VWS V14.01,2013-09-14 06:46:00,
2013-09-14 02:51:00,56.6,46.6,29.97,North,11,1.0,6.0,69,0.00,,---,0.00,VWS V14.01,2013-09-14 06:51:00,
2013-09-14 02:56:00,56.5,46.1,29.97,NNE,29,0.0,6.0,68,0.00,,---,0.00,VWS V14.01,2013-09-14 06:56:00,
2013-09-14 03:01:00,56.4,46.8,29.97,ESE,102,0.0,0.0,70,0.00,,---,0.00,VWS V14.01,2013-09-14 07:01:00,
2013-09-14 03:06:00,56.2,46.2,29.97,WSW,255,1.0,3.0,69,0.00,,---,0.00,VWS V14.01,2013-09-14 07:06:00,
2013-09-14 03:11:00,56.1,46.1,29.97,NNE,26,2.0,3.0,69,0.00,,---,0.00,VWS V14.01,2013-09-14 07:11:00,
2013-09-14 03:16:00,56.0,46.0,29.98,NNE,31,0.0,3.0,69,0.00,,---,0.00,VWS V14.01,2013-09-14 07:16:00,
2013-09-14 03:21:00,55.8,45.8,29.98,NNW,340,0.0,4.0,69,0.00,,---,0.00,VWS V14.01,2013-09-14 07:21:00,
2013-09-14 03:26:00,55.7,46.1,29.98,NNW,340,0.0,4.0,70,0.00,,---,0.00,VWS V14.01,2013-09-14 07:26:00,
2013-09-14 03:31:00,55.5,45.9,29.98,SE,138,0.0,0.0,70,0.00,,---,0.00,VWS V14.01,2013-09-14 07:31:00,
2013-09-14 03:36:00,55.3,46.1,29.98,WSW,243,0.0,1.0,71,0.00,,---,0.00,VWS V14.01,2013-09-14 07:36:00,
2013-09-14 03:42:00,55.1,45.9,29.98,WSW,245,0.0,1.0,71,0.00,,---,0.00,VWS V14.01,2013-09-14 07:42:00,
2013-09-14 03:47:00,54.9,45.7,29.99,NNW,327,0.0,1.0,71,0.00,,---,0.00,VWS V14.01,2013-09-14 07:47:00,
2013-09-14 03:52:00,54.8,46.0,29.99,WSW,251,2.0,2.0,72,0.00,,---,0.00,VWS V14.01,2013-09-14 07:52:00,
2013-09-14 03:57:00,54.8,46.0,29.98,SW,235,0.0,4.0,72,0.00,,---,0.00,VWS V14.01,2013-09-14 07:57:00,
2013-09-14 04:02:00,54.7,45.9,29.99,NW,317,0.0,1.0,72,0.00,,---,0.00,VWS V14.01,2013-09-14 08:02:00,
2013-09-14 04:07:00,54.6,45.4,29.99,SE,126,0.0,2.0,71,0.00,,---,0.00,VWS V14.01,2013-09-14 08:07:00,
2013-09-14 04:12:00,54.5,45.7,29.99,SW,218,0.0,2.0,72,0.00,,---,0.00,VWS V14.01,2013-09-14 08:12:00,
2013-09-14 04:17:00,54.3,45.8,29.99,SW,218,0.0,2.0,73,0.00,,---,0.00,VWS V14.01,2013-09-14 08:17:00,
2013-09-14 04:22:00,54.2,45.8,29.99,West,266,0.0,3.0,73,0.00,,---,0.00,VWS V14.01,2013-09-14 08:22:00,
2013-09-14 04:27:00,54.1,46.0,29.99,SE,143,0.0,3.0,74,0.00,,---,0.00,VWS V14.01,2013-09-14 08:27:00,
2013-09-14 04:32:00,53.9,45.8,29.99,ESE,123,0.0,0.0,74,0.00,,---,0.00,VWS V14.01,2013-09-14 08:32:00,
2013-09-14 04:37:00,53.8,45.7,30.00,SE,127,0.0,0.0,74,0.00,,---,0.00,VWS V14.01,2013-09-14 08:37:00,
2013-09-14 04:42:00,53.7,46.0,29.99,WSW,255,0.0,2.0,75,0.00,,---,0.00,VWS V14.01,2013-09-14 08:42:00,
2013-09-14 04:47:00,53.7,46.0,29.99,East,86,0.0,3.0,75,0.00,,---,0.00,VWS V14.01,2013-09-14 08:47:00,
2013-09-14 04:52:00,53.6,46.2,30.00,East,86,0.0,3.0,76,0.00,,---,0.00,VWS V14.01,2013-09-14 08:52:00,
2013-09-14 04:58:00,53.4,46.0,30.00,South,169,0.0,3.0,76,0.00,,---,0.00,VWS V14.01,2013-09-14 08:58:00,
2013-09-14 05:03:00,53.3,45.9,30.00,SSW,201,0.0,0.0,76,0.00,,---,0.00,VWS V14.01,2013-09-14 09:03:00,
2013-09-14 05:08:00,53.2,45.8,30.00,SW,232,0.0,0.0,76,0.00,,---,0.00,VWS V14.01,2013-09-14 09:08:00,
2013-09-14 05:13:00,53.1,45.8,30.00,SW,229,0.0,2.0,76,0.00,,---,0.00,VWS V14.01,2013-09-14 09:13:00,
2013-09-14 05:18:00,53.0,45.7,30.00,SW,226,0.0,2.0,76,0.00,,---,0.00,VWS V14.01,2013-09-14 09:18:00,
2013-09-14 05:23:00,52.9,45.9,30.00,East,82,0.0,2.0,77,0.00,,---,0.00,VWS V14.01,2013-09-14 09:23:00,
2013-09-14 05:28:00,52.7,45.7,30.00,WSW,237,0.0,2.0,77,0.00,,---,0.00,VWS V14.01,2013-09-14 09:28:00,
2013-09-14 05:33:00,52.7,45.7,30.01,SW,236,0.0,0.0,77,0.00,,---,0.00,VWS V14.01,2013-09-14 09:33:00,
2013-09-14 05:38:00,52.7,45.7,30.01,SW,221,0.0,5.0,77,0.00,,---,0.00,VWS V14.01,2013-09-14 09:38:00,
2013-09-14 05:43:00,52.8,45.8,30.01,North,353,0.0,5.0,77,0.00,,---,0.00,VWS V14.01,2013-09-14 09:43:00,
2013-09-14 05:48:00,52.8,45.8,30.01,NE,51,0.0,5.0,77,0.00,,---,0.00,VWS V14.01,2013-09-14 09:48:00,
2013-09-14 05:53:00,52.8,45.8,30.01,SW,234,0.0,5.0,77,0.00,,---,0.00,VWS V14.01,2013-09-14 09:53:00,
2013-09-14 05:58:00,52.7,46.0,30.02,ENE,58,0.0,5.0,78,0.00,,---,0.00,VWS V14.01,2013-09-14 09:58:00,
2013-09-14 06:03:00,52.6,46.0,30.02,ENE,58,0.0,1.0,78,0.00,,---,0.00,VWS V14.01,2013-09-14 10:03:00,
2013-09-14 06:08:00,52.5,45.8,30.02,SE,124,0.0,1.0,78,0.00,,---,0.00,VWS V14.01,2013-09-14 10:08:00,
2013-09-14 06:13:00,52.5,46.2,30.02,WSW,250,0.0,3.0,79,0.00,,---,0.00,VWS V14.01,2013-09-14 10:13:00,
2013-09-14 06:19:00,52.6,46.3,30.02,ESE,110,0.0,3.0,79,0.00,,---,0.00,VWS V14.01,2013-09-14 10:19:00,
2013-09-14 06:24:00,52.9,46.2,30.03,NNE,30,0.0,4.0,78,0.00,,---,0.00,VWS V14.01,2013-09-14 10:24:00,
2013-09-14 06:29:00,53.2,46.5,30.03,West,259,0.0,5.0,78,0.00,,---,0.00,VWS V14.01,2013-09-14 10:29:00,
2013-09-14 06:34:00,53.4,46.7,30.03,SSW,208,0.0,0.0,78,0.00,,---,0.00,VWS V14.01,2013-09-14 10:34:00,
2013-09-14 06:39:00,53.6,46.9,30.04,SSE,155,0.0,0.0,78,0.00,,---,0.00,VWS V14.01,2013-09-14 10:39:00,
2013-09-14 06:44:00,53.6,46.6,30.04,NE,40,2.0,4.0,77,0.00,,---,0.00,VWS V14.01,2013-09-14 10:44:00,
2013-09-14 06:49:00,53.7,46.3,30.04,NNE,16,0.0,4.0,76,0.00,,---,0.00,VWS V14.01,2013-09-14 10:49:00,
2013-09-14 06:54:00,53.8,46.8,30.04,NNW,328,0.0,4.0,77,0.00,,---,0.00,VWS V14.01,2013-09-14 10:54:00,
2013-09-14 06:59:00,53.7,46.7,30.05,NNW,339,0.0,4.0,77,0.00,,---,0.00,VWS V14.01,2013-09-14 10:59:00,
2013-09-14 07:04:00,53.7,47.0,30.05,North,355,0.0,1.0,78,0.00,,---,0.00,VWS V14.01,2013-09-14 11:04:00,
2013-09-14 07:09:00,53.6,46.6,30.05,NNW,341,0.0,1.0,77,0.00,,---,0.00,VWS V14.01,2013-09-14 11:09:00,
2013-09-14 07:14:00,53.6,46.9,30.05,WSW,239,0.0,1.0,78,0.00,,---,0.00,VWS V14.01,2013-09-14 11:14:00,
2013-09-14 07:19:00,53.6,46.9,30.05,East,83,0.0,2.0,78,0.00,,---,0.00,VWS V14.01,2013-09-14 11:19:00,
2013-09-14 07:24:00,53.6,46.9,30.05,ESE,117,0.0,2.0,78,0.00,,---,0.00,VWS V14.01,2013-09-14 11:24:00,
2013-09-14 07:29:00,53.5,46.8,30.06,West,262,0.0,2.0,78,0.00,,---,0.00,VWS V14.01,2013-09-14 11:29:00,
2013-09-14 07:35:00,53.4,46.7,30.06,SW,232,1.0,1.0,78,0.00,,---,0.00,VWS V14.01,2013-09-14 11:35:00,
2013-09-14 07:40:00,53.4,46.7,30.06,NE,46,0.0,1.0,78,0.00,,---,0.00,VWS V14.01,2013-09-14 11:40:00,
2013-09-14 07:45:00,53.5,47.2,30.06,NNE,16,0.0,2.0,79,0.00,,---,0.00,VWS V14.01,2013-09-14 11:45:00,
2013-09-14 07:50:00,53.4,47.1,30.06,ENE,65,0.0,5.0,79,0.00,,---,0.00,VWS V14.01,2013-09-14 11:50:00,
2013-09-14 07:55:00,53.3,46.6,30.07,SSW,193,0.0,5.0,78,0.00,,---,0.00,VWS V14.01,2013-09-14 11:55:00,
2013-09-14 08:00:00,53.2,46.9,30.07,WSW,250,0.0,5.0,79,0.00,,---,0.00,VWS V14.01,2013-09-14 12:00:00,
2013-09-14 08:05:00,53.2,46.9,30.07,West,261,0.0,4.0,79,0.00,,---,0.00,VWS V14.01,2013-09-14 12:05:00,
2013-09-14 08:10:00,53.4,47.1,30.07,North,352,0.0,4.0,79,0.00,,---,0.00,VWS V14.01,2013-09-14 12:10:00,
2013-09-14 08:15:00,53.7,47.3,30.07,NNE,25,0.0,4.0,79,0.00,,---,0.00,VWS V14.01,2013-09-14 12:15:00,
2013-09-14 08:20:00,53.9,47.5,30.07,NE,44,0.0,4.0,79,0.00,,---,0.00,VWS V14.01,2013-09-14 12:20:00,
2013-09-14 08:25:00,54.3,47.6,30.08,SW,214,2.0,4.0,78,0.00,,---,0.00,VWS V14.01,2013-09-14 12:25:00,
2013-09-14 08:30:00,54.9,47.1,30.08,SW,229,0.0,5.0,75,0.00,,---,0.00,VWS V14.01,2013-09-14 12:30:00,
2013-09-14 08:35:00,55.4,47.3,30.08,NNE,32,2.0,2.0,74,0.00,,---,0.00,VWS V14.01,2013-09-14 12:35:00,
2013-09-14 08:41:00,55.4,47.6,30.08,WSW,238,0.0,5.0,75,0.00,,---,0.00,VWS V14.01,2013-09-14 12:41:00,
2013-09-14 08:46:00,55.8,47.7,30.08,SSW,196,0.0,5.0,74,0.00,,---,0.00,VWS V14.01,2013-09-14 12:46:00,
2013-09-14 08:51:00,55.9,47.4,30.08,East,84,0.0,6.0,73,0.00,,---,0.00,VWS V14.01,2013-09-14 12:51:00,
2013-09-14 08:56:00,56.1,47.6,30.08,SW,218,1.0,6.0,73,0.00,,---,0.00,VWS V14.01,2013-09-14 12:56:00,
2013-09-14 09:01:00,56.3,47.8,30.09,West,281,2.0,2.0,73,0.00,,---,0.00,VWS V14.01,2013-09-14 13:01:00,
2013-09-14 09:06:00,56.6,48.1,30.09,SW,226,0.0,3.0,73,0.00,,---,0.00,VWS V14.01,2013-09-14 13:06:00,
2013-09-14 09:11:00,56.9,47.6,30.09,North,11,5.0,5.0,71,0.00,,---,0.00,VWS V14.01,2013-09-14 13:11:00,
2013-09-14 09:16:00,57.5,48.2,30.09,SSW,212,0.0,5.0,71,0.00,,---,0.00,VWS V14.01,2013-09-14 13:16:00,
2013-09-14 09:21:00,58.0,47.9,30.09,SE,136,0.0,5.0,69,0.00,,---,0.00,VWS V14.01,2013-09-14 13:21:00,
2013-09-14 09:26:00,58.9,48.8,30.09,NNE,15,0.0,5.0,69,0.00,,---,0.00,VWS V14.01,2013-09-14 13:26:00,
2013-09-14 09:31:00,59.5,48.2,30.10,NE,44,4.0,6.0,66,0.00,,---,0.00,VWS V14.01,2013-09-14 13:31:00,
2013-09-14 09:36:00,59.7,47.5,30.10,WSW,251,1.0,6.0,64,0.00,,---,0.00,VWS V14.01,2013-09-14 13:36:00,
2013-09-14 09:41:00,60.1,48.3,30.10,ESE,105,1.0,6.0,65,0.00,,---,0.00,VWS V14.01,2013-09-14 13:41:00,
2013-09-14 09:46:00,60.5,48.3,30.10,NE,41,2.0,6.0,64,0.00,,---,0.00,VWS V14.01,2013-09-14 13:46:00,
2013-09-14 09:51:00,60.8,47.7,30.10,North,356,0.0,7.0,62,0.00,,---,0.00,VWS V14.01,2013-09-14 13:51:00,
2013-09-14 09:56:00,60.9,47.8,30.11,NNW,343,1.0,7.0,62,0.00,,---,0.00,VWS V14.01,2013-09-14 13:56:00,
2013-09-14 10:01:00,61.0,47.5,30.11,ESE,107,0.0,2.0,61,0.00,,---,0.00,VWS V14.01,2013-09-14 14:01:00,
2013-09-14 10:07:00,61.3,47.8,30.11,SE,139,0.0,4.0,61,0.00,,---,0.00,VWS V14.01,2013-09-14 14:07:00,
2013-09-14 10:12:00,61.7,48.6,30.10,ESE,108,0.0,4.0,62,0.00,,---,0.00,VWS V14.01,2013-09-14 14:12:00,
2013-09-14 10:17:00,62.0,48.4,30.10,WSW,241,0.0,6.0,61,0.00,,---,0.00,VWS V14.01,2013-09-14 14:17:00,
2013-09-14 10:22:00,62.2,47.7,30.10,East,101,2.0,6.0,59,0.00,,---,0.00,VWS V14.01,2013-09-14 14:22:00,
2013-09-14 10:27:00,62.4,47.5,30.10,SW,219,0.0,6.0,58,0.00,,---,0.00,VWS V14.01,2013-09-14 14:27:00,
2013-09-14 10:32:00,62.4,47.0,30.10,North,6,0.0,2.0,57,0.00,,---,0.00,VWS V14.01,2013-09-14 14:32:00,
2013-09-14 10:37:00,62.5,47.5,30.10,East,91,0.0,3.0,58,0.00,,---,0.00,VWS V14.01,2013-09-14 14:37:00,
2013-09-14 10:42:00,63.0,48.0,30.11,SW,218,3.0,5.0,58,0.00,,---,0.00,VWS V14.01,2013-09-14 14:42:00,
2013-09-14 10:47:00,63.5,48.0,30.10,WSW,245,1.0,5.0,57,0.00,,---,0.00,VWS V14.01,2013-09-14 14:47:00,
2013-09-14 10:52:00,63.6,46.7,30.11,West,269,0.0,5.0,54,0.00,,---,0.00,VWS V14.01,2013-09-14 14:52:00,
2013-09-14 10:57:00,63.8,47.8,30.10,West,269,2.0,5.0,56,0.00,,---,0.00,VWS V14.01,2013-09-14 14:57:00,
2013-09-14 11:02:00,64.1,46.6,30.11,West,262,0.0,4.0,53,0.00,,---,0.00,VWS V14.01,2013-09-14 15:02:00,
2013-09-14 11:07:00,64.1,47.6,30.10,SSW,201,4.0,4.0,55,0.00,,---,0.00,VWS V14.01,2013-09-14 15:07:00,
2013-09-14 11:12:00,64.6,47.6,30.10,NNE,16,1.0,4.0,54,0.00,,---,0.00,VWS V14.01,2013-09-14 15:12:00,
2013-09-14 11:17:00,64.2,46.7,30.10,WSW,256,3.0,4.0,53,0.00,,---,0.00,VWS V14.01,2013-09-14 15:17:00,
2013-09-14 11:22:00,64.4,47.9,30.10,NW,316,1.0,4.0,55,0.00,,---,0.00,VWS V14.01,2013-09-14 15:22:00,
2013-09-14 11:28:00,65.1,47.6,30.10,SE,125,0.0,4.0,53,0.00,,---,0.00,VWS V14.01,2013-09-14 15:28:00,
2013-09-14 11:33:00,65.2,47.2,30.11,NE,34,1.0,3.0,52,0.00,,---,0.00,VWS V14.01,2013-09-14 15:33:00,
2013-09-14 11:38:00,65.5,47.4,30.10,ENE,58,0.0,5.0,52,0.00,,---,0.00,VWS V14.01,2013-09-14 15:38:00,
2013-09-14 11:43:00,65.5,46.4,30.11,ESE,110,1.0,5.0,50,0.00,,---,0.00,VWS V14.01,2013-09-14 15:43:00,
2013-09-14 11:48:00,65.1,46.5,30.10,WSW,243,3.0,7.0,51,0.00,,---,0.00,VWS V14.01,2013-09-14 15:48:00,
2013-09-14 11:53:00,65.2,47.2,30.10,ENE,65,4.0,8.0,52,0.00,,---,0.00,VWS V14.01,2013-09-14 15:53:00,
2013-09-14 11:58:00,65.0,47.5,30.10,NNW,330,1.0,8.0,53,0.00,,---,0.00,VWS V14.01,2013-09-14 15:58:00,
2013-09-14 12:03:00,65.1,48.5,30.10,West,267,1.0,2.0,55,0.00,,---,0.00,VWS V14.01,2013-09-14 16:03:00,
2013-09-14 12:08:00,66.3,48.2,30.10,WSW,242,2.0,5.0,52,0.00,,---,0.00,VWS V14.01,2013-09-14 16:08:00,
2013-09-14 12:13:00,67.3,48.6,30.10,SE,139,0.0,5.0,51,0.00,,---,0.00,VWS V14.01,2013-09-14 16:13:00,
2013-09-14 12:18:00,67.3,48.0,30.10,NE,44,1.0,5.0,50,0.00,,---,0.00,VWS V14.01,2013-09-14 16:18:00,
2013-09-14 12:23:00,67.4,48.7,30.10,East,100,0.0,5.0,51,0.00,,---,0.00,VWS V14.01,2013-09-14 16:23:00,
2013-09-14 12:28:00,67.1,48.4,30.10,SE,142,1.0,5.0,51,0.00,,---,0.00,VWS V14.01,2013-09-14 16:28:00,
2013-09-14 12:33:00,67.6,48.3,30.10,NNW,346,0.0,5.0,50,0.00,,---,0.00,VWS V14.01,2013-09-14 16:33:00,
2013-09-14 12:39:00,67.1,47.9,30.10,WNW,284,1.0,5.0,50,0.00,,---,0.00,VWS V14.01,2013-09-14 16:39:00,
2013-09-14 12:44:00,67.0,47.8,30.10,SE,134,0.0,5.0,50,0.00,,---,0.00,VWS V14.01,2013-09-14 16:44:00,
2013-09-14 12:49:00,66.2,47.6,30.10,WNW,284,1.0,5.0,51,0.00,,---,0.00,VWS V14.01,2013-09-14 16:49:00,
2013-09-14 12:54:00,66.1,48.5,30.10,WNW,292,1.0,5.0,53,0.00,,---,0.00,VWS V14.01,2013-09-14 16:54:00,
2013-09-14 12:59:00,66.0,47.4,30.10,NE,50,0.0,5.0,51,0.00,,---,0.00,VWS V14.01,2013-09-14 16:59:00,
2013-09-14 13:04:00,65.9,47.8,30.10,NE,36,0.0,6.0,52,0.00,,---,0.00,VWS V14.01,2013-09-14 17:04:00,
2013-09-14 13:09:00,65.6,48.5,30.10,WSW,242,0.0,6.0,54,0.00,,---,0.00,VWS V14.01,2013-09-14 17:09:00,
2013-09-14 13:14:00,65.5,47.4,30.10,WNW,290,0.0,7.0,52,0.00,,---,0.00,VWS V14.01,2013-09-14 17:14:00,
2013-09-14 13:19:00,66.0,47.4,30.10,NNW,338,3.0,7.0,51,0.00,,---,0.00,VWS V14.01,2013-09-14 17:19:00,
2013-09-14 13:24:00,66.5,48.3,30.10,NE,52,2.0,7.0,52,0.00,,---,0.00,VWS V14.01,2013-09-14 17:24:00,
2013-09-14 13:29:00,66.5,48.3,30.10,WSW,255,2.0,7.0,52,0.00,,---,0.00,VWS V14.01,2013-09-14 17:29:00,
2013-09-14 13:34:00,66.3,48.2,30.09,SW,226,3.0,7.0,52,0.00,,---,0.00,VWS V14.01,2013-09-14 17:34:00,
2013-09-14 13:39:00,66.8,48.1,30.09,NW,319,1.0,7.0,51,0.00,,---,0.00,VWS V14.01,2013-09-14 17:39:00,
2013-09-14 13:44:00,67.1,48.4,30.09,WSW,245,2.0,7.0,51,0.00,,---,0.00,VWS V14.01,2013-09-14 17:44:00,
2013-09-14 13:50:00,67.1,47.9,30.09,NNE,27,1.0,7.0,50,0.00,,---,0.00,VWS V14.01,2013-09-14 17:50:00,
2013-09-14 13:55:00,67.4,47.6,30.09,WNW,296,2.0,7.0,49,0.00,,---,0.00,VWS V14.01,2013-09-14 17:55:00,
2013-09-14 14:00:00,67.1,47.3,30.09,East,97,0.0,10.0,49,0.00,,---,0.00,VWS V14.01,2013-09-14 18:00:00,
2013-09-14 14:05:00,67.4,48.1,30.09,NNE,15,1.0,4.0,50,0.00,,---,0.00,VWS V14.01,2013-09-14 18:05:00,
2013-09-14 14:10:00,67.7,48.4,30.09,WSW,250,2.0,6.0,50,0.00,,---,0.00,VWS V14.01,2013-09-14 18:10:00,
2013-09-14 14:15:00,67.3,47.5,30.09,North,356,4.0,8.0,49,0.00,,---,0.00,VWS V14.01,2013-09-14 18:15:00,
2013-09-14 14:20:00,67.0,46.7,30.09,East,79,0.0,8.0,48,0.00,,---,0.00,VWS V14.01,2013-09-14 18:20:00,
2013-09-14 14:25:00,67.5,47.7,30.09,East,95,2.0,8.0,49,0.00,,---,0.00,VWS V14.01,2013-09-14 18:25:00,
2013-09-14 14:30:00,67.5,46.6,30.08,ENE,70,0.0,8.0,47,0.00,,---,0.00,VWS V14.01,2013-09-14 18:30:00,
2013-09-14 14:35:00,67.9,47.5,30.08,WSW,238,0.0,3.0,48,0.00,,---,0.00,VWS V14.01,2013-09-14 18:35:00,
2013-09-14 14:40:00,68.5,48.1,30.08,South,181,0.0,3.0,48,0.00,,---,0.00,VWS V14.01,2013-09-14 18:40:00,
2013-09-14 14:45:00,68.8,48.3,30.08,NE,34,1.0,7.0,48,0.00,,---,0.00,VWS V14.01,2013-09-14 18:45:00,
2013-09-14 14:50:00,68.7,47.1,30.08,West,267,1.0,7.0,46,0.00,,---,0.00,VWS V14.01,2013-09-14 18:50:00,
2013-09-14 14:56:00,68.1,47.7,30.08,NW,313,0.0,7.0,48,0.00,,---,0.00,VWS V14.01,2013-09-14 18:56:00,
2013-09-14 15:01:00,68.5,47.5,30.09,NE,46,1.0,7.0,47,0.00,,---,0.00,VWS V14.01,2013-09-14 19:01:00,
2013-09-14 15:06:00,68.6,48.2,30.08,WSW,240,0.0,5.0,48,0.00,,---,0.00,VWS V14.01,2013-09-14 19:06:00,
2013-09-14 15:11:00,68.3,47.3,30.08,NW,305,0.0,5.0,47,0.00,,---,0.00,VWS V14.01,2013-09-14 19:11:00,
2013-09-14 15:16:00,67.9,47.0,30.08,NE,39,1.0,5.0,47,0.00,,---,0.00,VWS V14.01,2013-09-14 19:16:00,
2013-09-14 15:21:00,68.0,47.0,30.08,SW,220,1.0,5.0,47,0.00,,---,0.00,VWS V14.01,2013-09-14 19:21:00,
2013-09-14 15:26:00,68.1,47.7,30.07,NNW,339,3.0,5.0,48,0.00,,---,0.00,VWS V14.01,2013-09-14 19:26:00,
2013-09-14 15:31:00,68.1,46.6,30.07,SW,218,2.0,4.0,46,0.00,,---,0.00,VWS V14.01,2013-09-14 19:31:00,
2013-09-14 15:36:00,67.9,46.4,30.07,North,354,1.0,4.0,46,0.00,,---,0.00,VWS V14.01,2013-09-14 19:36:00,
2013-09-14 15:41:00,68.1,47.7,30.07,NNE,32,1.0,4.0,48,0.00,,---,0.00,VWS V14.01,2013-09-14 19:41:00,
2013-09-14 15:46:00,68.5,47.5,30.07,NNE,26,4.0,6.0,47,0.00,,---,0.00,VWS V14.01,2013-09-14 19:46:00,
2013-09-14 15:51:00,68.3,46.7,30.07,East,101,0.0,6.0,46,0.00,,---,0.00,VWS V14.01,2013-09-14 19:51:00,
2013-09-14 15:57:00,68.2,47.2,30.07,West,271,0.0,6.0,47,0.00,,---,0.00,VWS V14.01,2013-09-14 19:57:00,
2013-09-14 16:02:00,68.3,47.3,30.07,East,91,1.0,2.0,47,0.00,,---,0.00,VWS V14.01,2013-09-14 20:02:00,
2013-09-14 16:07:00,68.5,46.9,30.07,NNE,15,3.0,5.0,46,0.00,,---,0.00,VWS V14.01,2013-09-14 20:07:00,
2013-09-14 16:12:00,68.3,47.9,30.07,WNW,300,1.0,6.0,48,0.00,,---,0.00,VWS V14.01,2013-09-14 20:12:00,
2013-09-14 16:17:00,68.8,48.3,30.07,SE,126,1.0,6.0,48,0.00,,---,0.00,VWS V14.01,2013-09-14 20:17:00,
2013-09-14 16:22:00,68.9,46.7,30.07,ENE,70,2.0,6.0,45,0.00,,---,0.00,VWS V14.01,2013-09-14 20:22:00,
2013-09-14 16:27:00,69.0,48.0,30.07,East,79,1.0,6.0,47,0.00,,---,0.00,VWS V14.01,2013-09-14 20:27:00,
2013-09-14 16:32:00,69.2,47.6,30.07,ESE,105,1.0,1.0,46,0.00,,---,0.00,VWS V14.01,2013-09-14 20:32:00,
2013-09-14 16:37:00,69.6,47.3,30.08,SW,221,2.0,3.0,45,0.00,,---,0.00,VWS V14.01,2013-09-14 20:37:00,
2013-09-14 16:42:00,69.8,47.5,30.08,NE,37,0.0,3.0,45,0.00,,---,0.00,VWS V14.01,2013-09-14 20:42:00,
2013-09-14 16:47:00,69.8,46.9,30.08,North,11,0.0,3.0,44,0.00,,---,0.00,VWS V14.01,2013-09-14 20:47:00,
2013-09-14 16:53:00,69.9,47.6,30.08,North,354,3.0,4.0,45,0.00,,---,0.00,VWS V14.01,2013-09-14 20:53:00,
2013-09-14 16:58:00,70.2,49.0,30.08,WSW,252,0.0,4.0,47,0.00,,---,0.00,VWS V14.01,2013-09-14 20:58:00,
2013-09-14 17:03:00,70.9,47.3,30.08,NE,47,1.0,7.0,43,0.00,,---,0.00,VWS V14.01,2013-09-14 21:03:00,
2013-09-14 17:08:00,70.8,47.8,30.08,West,262,0.0,7.0,44,0.00,,---,0.00,VWS V14.01,2013-09-14 21:08:00,
2013-09-14 17:13:00,70.9,47.3,30.08,NNE,23,0.0,7.0,43,0.00,,---,0.00,VWS V14.01,2013-09-14 21:13:00,
2013-09-14 17:18:00,70.9,46.7,30.09,NNW,341,1.0,7.0,42,0.00,,---,0.00,VWS V14.01,2013-09-14 21:18:00,
2013-09-14 17:23:00,71.1,48.1,30.09,NNE,16,1.0,7.0,44,0.00,,---,0.00,VWS V14.01,2013-09-14 21:23:00,
2013-09-14 17:28:00,71.6,47.9,30.09,NW,322,1.0,7.0,43,0.00,,---,0.00,VWS V14.01,2013-09-14 21:28:00,
2013-09-14 17:33:00,71.4,47.1,30.09,NNW,328,0.0,2.0,42,0.00,,---,0.00,VWS V14.01,2013-09-14 21:33:00,
2013-09-14 17:38:00,71.7,48.0,30.09,WSW,244,0.0,3.0,43,0.00,,---,0.00,VWS V14.01,2013-09-14 21:38:00,
2013-09-14 17:43:00,71.8,47.5,30.09,SW,232,0.0,4.0,42,0.00,,---,0.00,VWS V14.01,2013-09-14 21:43:00,
2013-09-14 17:48:00,71.7,47.4,30.09,North,1,0.0,4.0,42,0.00,,---,0.00,VWS V14.01,2013-09-14 21:48:00,
2013-09-14 17:54:00,71.6,47.3,30.09,WSW,257,1.0,4.0,42,0.00,,---,0.00,VWS V14.01,2013-09-14 21:54:00,
2013-09-14 17:59:00,71.6,47.9,30.09,WSW,257,0.0,4.0,43,0.00,,---,0.00,VWS V14.01,2013-09-14 21:59:00,
2013-09-14 18:04:00,70.6,47.7,30.10,WSW,248,1.0,3.0,44,0.00,,---,0.00,VWS V14.01,2013-09-14 22:04:00,
2013-09-14 18:09:00,69.4,47.7,30.10,NE,53,0.0,3.0,46,0.00,,---,0.00,VWS V14.01,2013-09-14 22:09:00,
2013-09-14 18:14:00,68.4,46.8,30.10,North,359,0.0,3.0,46,0.00,,---,0.00,VWS V14.01,2013-09-14 22:14:00,
2013-09-14 18:19:00,67.7,47.9,30.10,NNW,329,0.0,3.0,49,0.00,,---,0.00,VWS V14.01,2013-09-14 22:19:00,
2013-09-14 18:24:00,67.1,47.9,30.10,ESE,121,0.0,3.0,50,0.00,,---,0.00,VWS V14.01,2013-09-14 22:24:00,
2013-09-14 18:29:00,66.5,46.8,30.10,North,354,1.0,3.0,49,0.00,,---,0.00,VWS V14.01,2013-09-14 22:29:00,
2013-09-14 18:34:00,66.1,46.4,30.10,SW,224,0.0,0.0,49,0.00,,---,0.00,VWS V14.01,2013-09-14 22:34:00,
2013-09-14 18:39:00,65.7,46.6,30.11,WSW,238,0.0,1.0,50,0.00,,---,0.00,VWS V14.01,2013-09-14 22:39:00,
2013-09-14 18:44:00,65.4,46.8,30.10,SE,124,0.0,2.0,51,0.00,,---,0.00,VWS V14.01,2013-09-14 22:44:00,
2013-09-14 18:50:00,65.0,46.5,30.11,West,262,0.0,2.0,51,0.00,,---,0.00,VWS V14.01,2013-09-14 22:50:00,
2013-09-14 18:52:00,64.9,46.9,30.11,NE,47,0.0,2.0,52,0.00,,---,0.00,VWS V14.01,2013-09-14 22:52:00,
2013-09-14 18:57:00,64.6,47.1,30.11,West,262,0.0,2.0,53,0.00,,---,0.00,VWS V14.01,2013-09-14 22:57:00,
2013-09-14 19:02:00,64.4,46.9,30.11,NNE,25,0.0,0.0,53,0.00,,---,0.00,VWS V14.01,2013-09-14 23:02:00,
2013-09-14 19:07:00,64.1,46.6,30.11,ENE,71,0.0,3.0,53,0.00,,---,0.00,VWS V14.01,2013-09-14 23:07:00,
2013-09-14 19:12:00,63.8,47.3,30.12,ENE,71,0.0,3.0,55,0.00,,---,0.00,VWS V14.01,2013-09-14 23:12:00,
2013-09-14 19:17:00,63.4,47.9,30.12,West,280,0.0,3.0,57,0.00,,---,0.00,VWS V14.01,2013-09-14 23:17:00,
2013-09-14 19:22:00,63.0,47.1,30.12,West,280,0.0,3.0,56,0.00,,---,0.00,VWS V14.01,2013-09-14 23:22:00,
2013-09-14 19:27:00,62.6,47.2,30.12,West,280,0.0,3.0,57,0.00,,---,0.00,VWS V14.01,2013-09-14 23:27:00,
2013-09-14 19:32:00,62.2,47.3,30.12,West,280,0.0,0.0,58,0.00,,---,0.00,VWS V14.01,2013-09-14 23:32:00,
2013-09-14 19:37:00,61.8,47.3,30.12,West,280,0.0,0.0,59,0.00,,---,0.00,VWS V14.01,2013-09-14 23:37:00,
2013-09-14 19:43:00,61.4,47.4,30.13,West,281,0.0,0.0,60,0.00,,---,0.00,VWS V14.01,2013-09-14 23:43:00,
2013-09-14 19:48:00,61.0,47.9,30.13,West,280,0.0,0.0,62,0.00,,---,0.00,VWS V14.01,2013-09-14 23:48:00,
2013-09-14 19:53:00,60.6,48.0,30.13,West,280,0.0,0.0,63,0.00,,---,0.00,VWS V14.01,2013-09-14 23:53:00,
2013-09-14 19:58:00,60.2,48.0,30.13,West,280,0.0,0.0,64,0.00,,---,0.00,VWS V14.01,2013-09-14 23:58:00,
2013-09-14 20:03:00,59.9,48.1,30.13,West,280,0.0,0.0,65,0.00,,---,0.00,VWS V14.01,2013-09-15 00:03:00,
2013-09-14 20:08:00,59.5,47.7,30.14,West,280,0.0,0.0,65,0.00,,---,0.00,VWS V14.01,2013-09-15 00:08:00,
2013-09-14 20:13:00,59.2,48.3,30.14,West,280,0.0,0.0,67,0.00,,---,0.00,VWS V14.01,2013-09-15 00:13:00,
2013-09-14 20:18:00,58.9,48.4,30.14,West,280,0.0,0.0,68,0.00,,---,0.00,VWS V14.01,2013-09-15 00:18:00,
2013-09-14 20:23:00,58.6,48.1,30.14,West,280,0.0,0.0,68,0.00,,---,0.00,VWS V14.01,2013-09-15 00:23:00,
2013-09-14 20:28:00,58.3,47.8,30.14,West,280,0.0,0.0,68,0.00,,---,0.00,VWS V14.01,2013-09-15 00:28:00,
2013-09-14 20:33:00,58.0,47.9,30.15,West,280,0.0,0.0,69,0.00,,---,0.00,VWS V14.01,2013-09-15 00:33:00,
2013-09-14 20:39:00,57.8,47.7,30.15,West,281,0.0,0.0,69,0.00,,---,0.00,VWS V14.01,2013-09-15 00:39:00,
2013-09-14 20:44:00,57.6,47.5,30.15,West,280,0.0,0.0,69,0.00,,---,0.00,VWS V14.01,2013-09-15 00:44:00,
2013-09-14 20:49:00,57.4,47.7,30.15,West,280,0.0,0.0,70,0.00,,---,0.00,VWS V14.01,2013-09-15 00:49:00,
2013-09-14 20:54:00,57.2,47.9,30.15,West,280,0.0,0.0,71,0.00,,---,0.00,VWS V14.01,2013-09-15 00:54:00,
2013-09-14 20:59:00,57.0,47.7,30.15,West,280,0.0,0.0,71,0.00,,---,0.00,VWS V14.01,2013-09-15 00:59:00,
2013-09-14 21:04:00,56.9,48.0,30.15,West,280,0.0,0.0,72,0.00,,---,0.00,VWS V14.01,2013-09-15 01:04:00,
2013-09-14 21:09:00,56.7,47.8,30.15,West,280,0.0,0.0,72,0.00,,---,0.00,VWS V14.01,2013-09-15 01:09:00,
2013-09-14 21:14:00,56.6,48.1,30.15,West,280,0.0,0.0,73,0.00,,---,0.00,VWS V14.01,2013-09-15 01:14:00,
2013-09-14 21:19:00,56.5,48.3,30.16,West,280,0.0,0.0,74,0.00,,---,0.00,VWS V14.01,2013-09-15 01:19:00,
2013-09-14 21:24:00,56.2,48.0,30.16,West,280,0.0,0.0,74,0.00,,---,0.00,VWS V14.01,2013-09-15 01:24:00,
2013-09-14 21:30:00,56.1,48.3,30.16,West,280,0.0,0.0,75,0.00,,---,0.00,VWS V14.01,2013-09-15 01:30:00,
2013-09-14 21:35:00,55.9,48.1,30.16,West,280,0.0,0.0,75,0.00,,---,0.00,VWS V14.01,2013-09-15 01:35:00,
2013-09-14 21:40:00,55.8,48.0,30.16,West,280,0.0,0.0,75,0.00,,---,0.00,VWS V14.01,2013-09-15 01:40:00,
2013-09-14 21:45:00,55.6,48.2,30.16,West,280,0.0,0.0,76,0.00,,---,0.00,VWS V14.01,2013-09-15 01:45:00,
2013-09-14 21:50:00,55.5,48.4,30.16,West,280,0.0,0.0,77,0.00,,---,0.00,VWS V14.01,2013-09-15 01:50:00,
2013-09-14 21:55:00,55.4,48.0,30.16,West,280,0.0,0.0,76,0.00,,---,0.00,VWS V14.01,2013-09-15 01:55:00,
2013-09-14 22:00:00,55.3,47.9,30.16,West,280,0.0,0.0,76,0.00,,---,0.00,VWS V14.01,2013-09-15 02:00:00,
2013-09-14 22:05:00,55.1,48.0,30.16,West,280,0.0,0.0,77,0.00,,---,0.00,VWS V14.01,2013-09-15 02:05:00,
2013-09-14 22:10:00,55.0,47.9,30.16,West,280,0.0,0.0,77,0.00,,---,0.00,VWS V14.01,2013-09-15 02:10:00,
2013-09-14 22:15:00,54.9,48.2,30.17,West,280,0.0,0.0,78,0.00,,---,0.00,VWS V14.01,2013-09-15 02:15:00,
2013-09-14 22:20:00,54.8,48.4,30.17,West,280,0.0,0.0,79,0.00,,---,0.00,VWS V14.01,2013-09-15 02:20:00,
2013-09-14 22:25:00,54.6,48.2,30.17,West,280,0.0,0.0,79,0.00,,---,0.00,VWS V14.01,2013-09-15 02:25:00,
2013-09-14 22:31:00,54.5,48.5,30.17,West,280,0.0,0.0,80,0.00,,---,0.00,VWS V14.01,2013-09-15 02:31:00,
2013-09-14 22:36:00,54.4,48.4,30.17,West,280,0.0,0.0,80,0.00,,---,0.00,VWS V14.01,2013-09-15 02:36:00,
2013-09-14 22:41:00,54.3,48.3,30.17,West,280,0.0,0.0,80,0.00,,---,0.00,VWS V14.01,2013-09-15 02:41:00,
2013-09-14 22:46:00,54.2,48.2,30.17,West,280,0.0,0.0,80,0.00,,---,0.00,VWS V14.01,2013-09-15 02:46:00,
2013-09-14 22:51:00,54.1,48.4,30.17,West,280,0.0,0.0,81,0.00,,---,0.00,VWS V14.01,2013-09-15 02:51:00,
2013-09-14 22:56:00,54.0,48.3,30.17,West,280,0.0,0.0,81,0.00,,---,0.00,VWS V14.01,2013-09-15 02:56:00,
2013-09-14 23:01:00,53.9,48.5,30.17,West,280,0.0,0.0,82,0.00,,---,0.00,VWS V14.01,2013-09-15 03:01:00,
2013-09-14 23:06:00,53.8,48.4,30.17,West,280,0.0,0.0,82,0.00,,---,0.00,VWS V14.01,2013-09-15 03:06:00,
2013-09-14 23:11:00,53.7,48.3,30.17,West,280,0.0,0.0,82,0.00,,---,0.00,VWS V14.01,2013-09-15 03:11:00,
2013-09-14 23:16:00,53.5,48.5,30.17,West,280,0.0,0.0,83,0.00,,---,0.00,VWS V14.01,2013-09-15 03:16:00,
2013-09-14 23:21:00,53.4,48.4,30.17,West,280,0.0,0.0,83,0.00,,---,0.00,VWS V14.01,2013-09-15 03:21:00,
2013-09-14 23:27:00,53.2,48.2,30.18,West,280,0.0,0.0,83,0.00,,---,0.00,VWS V14.01,2013-09-15 03:27:00,
2013-09-14 23:32:00,53.0,48.3,30.18,West,280,0.0,0.0,84,0.00,,---,0.00,VWS V14.01,2013-09-15 03:32:00,
2013-09-14 23:37:00,52.9,48.2,30.17,West,280,0.0,0.0,84,0.00,,---,0.00,VWS V14.01,2013-09-15 03:37:00,
2013-09-14 23:42:00,52.9,48.5,30.18,West,280,0.0,0.0,85,0.00,,---,0.00,VWS V14.01,2013-09-15 03:42:00,
2013-09-14 23:47:00,52.8,48.4,30.18,West,280,0.0,0.0,85,0.00,,---,0.00,VWS V14.01,2013-09-15 03:47:00,
2013-09-14 23:52:00,52.7,48.0,30.18,West,280,0.0,0.0,84,0.00,,---,0.00,VWS V14.01,2013-09-15 03:52:00,
2013-09-14 23:57:00,52.5,48.1,30.18,West,280,0.0,0.0,85,0.00,,---,0.00,VWS V14.01,2013-09-15 03:57:00,